PDA6027 LGKR-UKBB

Flight info

Callsign PDA6027
Flight time 2h 12m
Altitude 37000
Route NIKRO DCT PIKOS UM600 ELPIS DCT DIKNI M987 SOMOV DCT POGAV/K0833F370 N180 SULUM
Aircraft A321/M-SDE3FGHIRWY/LB1

Departure

Time 2026-05-06 16:44
Airport Corfu Ioannis Kapodistrias International Airport (LGKR)

Arrival

Time 2026-05-06 18:57
Airport Boryspil International Airport (UKBB)
Time Latitude Longitude Altitude Speed Heading
2026-05-06 16:41 39.61021 19.91125 7 ft 10 kts 352°
2026-05-06 16:41 39.61096 19.91110 7 ft 11 kts 350°
2026-05-06 16:41 39.61179 19.91087 8 ft 12 kts 341°
2026-05-06 16:42 39.61231 19.90996 8 ft 13 kts 285°
2026-05-06 16:42 39.61163 19.90965 8 ft 13 kts 169°
2026-05-06 16:42 39.61101 19.90981 7 ft 0 kts 168°
2026-05-06 16:42 39.61098 19.90982 7 ft 1 kts 169°
2026-05-06 16:43 39.61086 19.90985 7 ft 2 kts 169°
2026-05-06 16:43 39.61084 19.90986 7 ft 0 kts 169°
2026-05-06 16:43 39.61072 19.90988 7 ft 10 kts 169°
2026-05-06 16:43 39.60742 19.91077 5 ft 84 kts 169°
2026-05-06 16:44 39.59961 19.91275 2 ft 144 kts 169°
2026-05-06 16:44 39.58850 19.91571 180 ft 176 kts 169°
2026-05-06 16:44 39.57662 19.91855 837 ft 173 kts 167°
2026-05-06 16:44 39.56704 19.92703 1439 ft 177 kts 121°
2026-05-06 16:45 39.56187 19.94133 2026 ft 183 kts 112°
2026-05-06 16:45 39.55683 19.95714 2473 ft 199 kts 114°
2026-05-06 16:45 39.54855 19.97143 2884 ft 213 kts 139°
2026-05-06 16:45 39.53645 19.98317 3232 ft 226 kts 145°
2026-05-06 16:46 39.52323 19.99507 3662 ft 236 kts 145°
2026-05-06 16:46 39.51004 20.00744 4262 ft 238 kts 142°
2026-05-06 16:46 39.49967 20.02379 4827 ft 242 kts 109°
2026-05-06 16:46 39.49894 20.04517 5415 ft 245 kts 71°
2026-05-06 16:47 39.50773 20.06363 6038 ft 247 kts 50°
2026-05-06 16:47 39.51875 20.08080 6640 ft 251 kts 49°
2026-05-06 16:47 39.53200 20.09497 7228 ft 254 kts 23°
2026-05-06 16:47 39.54911 20.10056 7874 ft 255 kts
2026-05-06 16:48 39.56627 20.10752 8225 ft 272 kts 32°
2026-05-06 16:48 39.57905 20.12637 8588 ft 289 kts 66°
2026-05-06 16:48 39.58360 20.15153 9213 ft 294 kts 81°
2026-05-06 16:48 39.58692 20.17769 9888 ft 297 kts 78°
2026-05-06 16:49 39.59139 20.20387 10501 ft 303 kts 74°
2026-05-06 16:49 39.59718 20.23087 10843 ft 318 kts 72°
2026-05-06 16:49 39.60403 20.25877 11136 ft 334 kts 70°
2026-05-06 16:49 39.61169 20.28775 11422 ft 349 kts 69°
2026-05-06 16:50 39.61990 20.31776 11694 ft 364 kts 69°
2026-05-06 16:50 39.62851 20.34863 12176 ft 370 kts 69°
2026-05-06 16:50 39.63732 20.38004 12757 ft 373 kts 68°
2026-05-06 16:50 39.64322 20.40098 13161 ft 375 kts 68°
2026-05-06 16:51 39.65522 20.44350 13923 ft 380 kts 68°
2026-05-06 16:51 39.66433 20.47578 14451 ft 383 kts 68°
2026-05-06 16:51 39.67346 20.50810 14979 ft 386 kts 68°
2026-05-06 16:51 39.68269 20.54086 15489 ft 389 kts 68°
2026-05-06 16:52 39.69192 20.57358 16006 ft 392 kts 68°
2026-05-06 16:52 39.70134 20.60703 16526 ft 395 kts 68°
2026-05-06 16:52 39.71076 20.64052 16997 ft 399 kts 68°
2026-05-06 16:52 39.72030 20.67446 17453 ft 402 kts 68°
2026-05-06 16:53 39.72989 20.70865 17914 ft 405 kts 68°
2026-05-06 16:53 39.73940 20.74264 18370 ft 409 kts 68°
2026-05-06 16:53 39.74902 20.77704 18827 ft 411 kts 68°
2026-05-06 16:53 39.75874 20.81183 19287 ft 414 kts 68°
2026-05-06 16:54 39.76858 20.84712 19742 ft 416 kts 68°
2026-05-06 16:54 39.77837 20.88230 20170 ft 419 kts 68°
2026-05-06 16:54 39.78831 20.91807 20606 ft 422 kts 68°
2026-05-06 16:54 39.79820 20.95363 21025 ft 425 kts 68°
2026-05-06 16:55 39.80824 20.98985 21428 ft 428 kts 68°
2026-05-06 16:55 39.81826 21.02603 21827 ft 431 kts 68°
2026-05-06 16:55 39.82842 21.06274 22228 ft 434 kts 68°
2026-05-06 16:55 39.83857 21.09949 22627 ft 436 kts 68°
2026-05-06 16:56 39.84889 21.13690 23010 ft 439 kts 68°
2026-05-06 16:56 39.85904 21.17376 23383 ft 441 kts 68°
2026-05-06 16:56 39.86950 21.21177 23768 ft 444 kts 68°
2026-05-06 16:56 39.87981 21.24933 24134 ft 446 kts 68°
2026-05-06 16:57 39.89023 21.28732 24501 ft 449 kts 68°
2026-05-06 16:57 39.90064 21.32533 24862 ft 451 kts 68°
2026-05-06 16:57 39.91119 21.36400 25234 ft 453 kts 68°
2026-05-06 16:57 39.92167 21.40241 25582 ft 455 kts 68°
2026-05-06 16:58 39.93221 21.44109 25911 ft 458 kts 68°
2026-05-06 16:58 39.94281 21.48013 26235 ft 460 kts 68°
2026-05-06 16:58 39.95355 21.51962 26547 ft 462 kts 67°
2026-05-06 16:58 39.96507 21.55820 26870 ft 463 kts 64°
2026-05-06 16:59 39.97819 21.59655 27192 ft 463 kts 62°
2026-05-06 16:59 39.99170 21.63447 27496 ft 465 kts 62°
2026-05-06 16:59 40.00547 21.67276 27786 ft 467 kts 62°
2026-05-06 16:59 40.01926 21.71123 28045 ft 470 kts 62°
2026-05-06 17:00 40.03296 21.74956 28309 ft 472 kts 62°
2026-05-06 17:00 40.04679 21.78844 28655 ft 472 kts 62°
2026-05-06 17:00 40.06019 21.82623 29067 ft 470 kts 62°
2026-05-06 17:00 40.07378 21.86461 29478 ft 469 kts 62°
2026-05-06 17:01 40.08726 21.90273 29851 ft 468 kts 62°
2026-05-06 17:01 40.10085 21.94124 30217 ft 468 kts 62°
2026-05-06 17:01 40.11442 21.97972 30611 ft 466 kts 62°
2026-05-06 17:01 40.12788 22.01814 30988 ft 466 kts 62°
2026-05-06 17:02 40.14103 22.05649 31336 ft 466 kts 62°
2026-05-06 17:02 40.15403 22.09474 31685 ft 465 kts 62°
2026-05-06 17:02 40.16716 22.13341 32026 ft 464 kts 62°
2026-05-06 17:02 40.18007 22.17148 32370 ft 464 kts 62°
2026-05-06 17:03 40.19321 22.21025 32711 ft 463 kts 62°
2026-05-06 17:03 40.20603 22.24813 33039 ft 462 kts 62°
2026-05-06 17:03 40.21910 22.28681 33360 ft 462 kts 62°
2026-05-06 17:03 40.23190 22.32472 33674 ft 461 kts 62°
2026-05-06 17:04 40.24471 22.36267 33991 ft 460 kts 62°
2026-05-06 17:04 40.25748 22.40059 34290 ft 460 kts 62°
2026-05-06 17:04 40.27032 22.43876 34581 ft 459 kts 62°
2026-05-06 17:04 40.28322 22.47713 34886 ft 459 kts 62°
2026-05-06 17:05 40.29606 22.51455 35176 ft 457 kts 60°
2026-05-06 17:05 40.31134 22.55115 35433 ft 454 kts 53°
2026-05-06 17:05 40.32880 22.58478 35643 ft 451 kts 49°
2026-05-06 17:05 40.34866 22.61692 35838 ft 449 kts 44°
2026-05-06 17:06 40.36992 22.64623 36018 ft 447 kts 39°
2026-05-06 17:06 40.39274 22.67316 36196 ft 445 kts 35°
2026-05-06 17:06 40.41701 22.69883 36357 ft 445 kts 34°
2026-05-06 17:06 40.44117 22.72377 36511 ft 445 kts 34°
2026-05-06 17:07 40.46550 22.74888 36673 ft 446 kts 34°
2026-05-06 17:07 40.48997 22.77425 36823 ft 446 kts 34°
2026-05-06 17:07 40.51398 22.79926 36960 ft 447 kts 34°
2026-05-06 17:08 40.56251 22.85009 37009 ft 448 kts 34°
2026-05-06 17:08 40.61116 22.90124 37012 ft 447 kts 34°
2026-05-06 17:09 40.65979 22.95250 37008 ft 447 kts 34°
2026-05-06 17:09 40.70833 23.00372 37010 ft 447 kts 34°
2026-05-06 17:10 40.75664 23.05484 37011 ft 447 kts 34°
2026-05-06 17:10 40.80512 23.10622 37016 ft 447 kts 34°
2026-05-06 17:11 40.85419 23.15687 37019 ft 445 kts 31°
2026-05-06 17:11 40.90586 23.20162 37033 ft 442 kts 27°
2026-05-06 17:12 40.95789 23.24456 37049 ft 441 kts 27°
2026-05-06 17:12 41.00911 23.28943 37053 ft 444 kts 32°
2026-05-06 17:13 41.05685 23.34265 37047 ft 447 kts 38°
2026-05-06 17:13 41.10215 23.39949 37046 ft 447 kts 39°
2026-05-06 17:14 41.14721 23.45635 37052 ft 447 kts 39°
2026-05-06 17:14 41.19215 23.51296 37064 ft 447 kts 38°
2026-05-06 17:15 41.23721 23.56969 37079 ft 446 kts 38°
2026-05-06 17:15 41.28260 23.62610 37084 ft 446 kts 38°
2026-05-06 17:16 41.32769 23.68214 37082 ft 447 kts 39°
2026-05-06 17:16 41.37531 23.73487 36894 ft 440 kts 31°
2026-05-06 17:16 41.40056 23.75755 37035 ft 439 kts 27°
2026-05-06 17:17 41.42678 23.77778 37071 ft 439 kts 24°
2026-05-06 17:17 41.48212 23.81100 37084 ft 435 kts 16°
2026-05-06 17:18 41.53957 23.83736 37086 ft 434 kts 14°
2026-05-06 17:18 41.59683 23.86303 37090 ft 434 kts 14°
2026-05-06 17:19 41.65434 23.88898 37094 ft 433 kts 14°
2026-05-06 17:19 41.71119 23.91476 37097 ft 433 kts 14°
2026-05-06 17:20 41.76862 23.94088 37098 ft 433 kts 15°
2026-05-06 17:20 41.82568 23.96689 37099 ft 433 kts 14°
2026-05-06 17:21 41.88245 23.99281 37095 ft 434 kts 14°
2026-05-06 17:21 41.94017 24.01923 37085 ft 434 kts 14°
2026-05-06 17:22 41.99717 24.04536 37087 ft 434 kts 14°
2026-05-06 17:22 42.05485 24.07184 37080 ft 433 kts 14°
2026-05-06 17:23 42.11220 24.09823 37070 ft 432 kts 14°
2026-05-06 17:23 42.16875 24.12430 37065 ft 432 kts 14°
2026-05-06 17:24 42.22571 24.15061 37058 ft 432 kts 15°
2026-05-06 17:24 42.28280 24.17704 37044 ft 433 kts 14°
2026-05-06 17:25 42.34010 24.20360 37042 ft 433 kts 15°
2026-05-06 17:25 42.39714 24.23010 37034 ft 432 kts 14°
2026-05-06 17:26 42.45435 24.25672 37043 ft 432 kts 14°
2026-05-06 17:26 42.51127 24.28327 37046 ft 432 kts 15°
2026-05-06 17:27 42.56873 24.31011 37043 ft 432 kts 14°
2026-05-06 17:27 42.62612 24.33697 37053 ft 432 kts 15°
2026-05-06 17:28 42.68298 24.36365 37064 ft 431 kts 15°
2026-05-06 17:28 42.74029 24.39061 37072 ft 431 kts 14°
2026-05-06 17:29 42.79735 24.41747 37070 ft 431 kts 15°
2026-05-06 17:29 42.85449 24.44442 37064 ft 431 kts 15°
2026-05-06 17:30 42.91163 24.47144 37054 ft 431 kts 15°
2026-05-06 17:30 42.96860 24.49845 37040 ft 430 kts 15°
2026-05-06 17:31 43.02556 24.52549 37029 ft 429 kts 15°
2026-05-06 17:31 43.08236 24.55250 37024 ft 429 kts 15°
2026-05-06 17:32 43.13892 24.57945 37021 ft 429 kts 15°
2026-05-06 17:32 43.19555 24.60649 37009 ft 429 kts 15°
2026-05-06 17:33 43.25208 24.63355 36992 ft 428 kts 15°
2026-05-06 17:33 43.30834 24.66052 36986 ft 428 kts 15°
2026-05-06 17:34 43.36451 24.68750 36989 ft 428 kts 15°
2026-05-06 17:34 43.42085 24.71464 36991 ft 428 kts 15°
2026-05-06 17:35 43.47706 24.74174 36987 ft 428 kts 15°
2026-05-06 17:35 43.52954 24.76711 36985 ft 427 kts 15°
2026-05-06 17:36 43.61353 24.80781 36975 ft 426 kts 15°
2026-05-06 17:36 43.66880 24.83767 36971 ft 429 kts 20°
2026-05-06 17:37 43.72241 24.87623 36966 ft 433 kts 26°
2026-05-06 17:37 43.77292 24.92277 36962 ft 435 kts 31°
2026-05-06 17:38 43.82173 24.97201 36955 ft 435 kts 31°
2026-05-06 17:38 43.87101 25.02197 36961 ft 434 kts 31°
2026-05-06 17:39 43.91970 25.07133 36957 ft 435 kts 31°
2026-05-06 17:39 43.96916 25.12156 36963 ft 435 kts 31°
2026-05-06 17:40 44.01796 25.17119 36965 ft 435 kts 31°
2026-05-06 17:40 44.06739 25.22158 36969 ft 434 kts 31°
2026-05-06 17:41 44.11626 25.27148 36967 ft 434 kts 31°
2026-05-06 17:41 44.16488 25.32121 36974 ft 434 kts 31°
2026-05-06 17:42 44.21389 25.37150 36977 ft 434 kts 31°
2026-05-06 17:42 44.26263 25.42160 36979 ft 434 kts 31°
2026-05-06 17:43 44.31137 25.47179 36982 ft 434 kts 32°
2026-05-06 17:43 44.36027 25.52228 36988 ft 433 kts 32°
2026-05-06 17:44 44.40887 25.57254 36986 ft 434 kts 31°
2026-05-06 17:44 44.45769 25.62315 36983 ft 433 kts 32°
2026-05-06 17:45 44.50625 25.67359 36985 ft 433 kts 32°
2026-05-06 17:45 44.55237 25.72161 36987 ft 433 kts 32°
2026-05-06 17:46 44.60072 25.77203 36993 ft 433 kts 32°
2026-05-06 17:46 44.64896 25.82244 36994 ft 434 kts 32°
2026-05-06 17:47 44.69739 25.87317 36993 ft 433 kts 32°
2026-05-06 17:47 44.74599 25.92419 36993 ft 433 kts 32°
2026-05-06 17:48 44.79421 25.97494 36998 ft 432 kts 32°
2026-05-06 17:48 44.84265 26.02600 36998 ft 432 kts 32°
2026-05-06 17:49 44.89115 26.07725 37004 ft 432 kts 32°
2026-05-06 17:49 44.93948 26.12841 37007 ft 432 kts 32°
2026-05-06 17:50 44.98778 26.17968 37005 ft 432 kts 32°
2026-05-06 17:50 45.03618 26.23115 37008 ft 432 kts 32°
2026-05-06 17:51 45.08428 26.28239 37018 ft 432 kts 32°
2026-05-06 17:51 45.13237 26.33375 37019 ft 432 kts 32°
2026-05-06 17:52 45.18051 26.38527 37028 ft 432 kts 32°
2026-05-06 17:52 45.22838 26.43661 37023 ft 432 kts 33°
2026-05-06 17:53 45.27643 26.48829 37026 ft 431 kts 33°
2026-05-06 17:53 45.32444 26.54001 37029 ft 431 kts 33°
2026-05-06 17:54 45.37225 26.59162 37034 ft 432 kts 33°
2026-05-06 17:54 45.42059 26.64394 37035 ft 432 kts 33°
2026-05-06 17:55 45.46846 26.69585 37039 ft 431 kts 33°
2026-05-06 17:55 45.51514 26.74659 37040 ft 431 kts 33°
2026-05-06 17:56 45.56305 26.79875 37036 ft 431 kts 33°
2026-05-06 17:56 45.61060 26.85063 37030 ft 431 kts 33°
2026-05-06 17:57 45.65832 26.90286 37026 ft 431 kts 33°
2026-05-06 17:57 45.70608 26.95522 37028 ft 430 kts 33°
2026-05-06 17:58 45.75376 27.00762 37026 ft 430 kts 33°
2026-05-06 17:58 45.80134 27.06001 37018 ft 431 kts 33°
2026-05-06 17:59 45.84914 27.11275 37015 ft 431 kts 33°
2026-05-06 17:59 45.89712 27.16580 37018 ft 431 kts 33°
2026-05-06 18:00 45.94476 27.21864 37017 ft 431 kts 34°
2026-05-06 18:00 45.99198 27.27109 37017 ft 431 kts 34°
2026-05-06 18:01 46.03997 27.32455 37019 ft 431 kts 34°
2026-05-06 18:01 46.08757 27.37767 37015 ft 431 kts 34°
2026-05-06 18:02 46.13493 27.43063 37010 ft 432 kts 34°
2026-05-06 18:02 46.18211 27.48352 37009 ft 432 kts 34°
2026-05-06 18:03 46.22950 27.53676 37016 ft 433 kts 34°
2026-05-06 18:03 46.27687 27.59012 37016 ft 433 kts 34°
2026-05-06 18:04 46.32441 27.64376 37024 ft 433 kts 34°
2026-05-06 18:04 46.37167 27.69725 37021 ft 434 kts 35°
2026-05-06 18:05 46.41930 27.75125 37025 ft 434 kts 35°
2026-05-06 18:05 46.46678 27.80521 37020 ft 434 kts 35°
2026-05-06 18:06 46.51438 27.85944 37026 ft 434 kts 35°
2026-05-06 18:06 46.56181 27.91358 37026 ft 435 kts 36°
2026-05-06 18:07 46.60969 27.96839 37026 ft 434 kts 36°
2026-05-06 18:07 46.65741 28.02314 37018 ft 434 kts 36°
2026-05-06 18:08 46.70501 28.07790 37012 ft 434 kts 36°
2026-05-06 18:08 46.75253 28.13270 37013 ft 433 kts 36°
2026-05-06 18:09 46.80128 28.18474 37013 ft 432 kts 31°
2026-05-06 18:09 46.85178 28.23257 37012 ft 431 kts 30°
2026-05-06 18:10 46.90250 28.28035 37017 ft 432 kts 30°
2026-05-06 18:10 46.95329 28.32839 37010 ft 433 kts 30°
2026-05-06 18:11 47.00393 28.37643 37018 ft 433 kts 30°
2026-05-06 18:11 47.05451 28.42456 37018 ft 433 kts 30°
2026-05-06 18:12 47.10496 28.47265 37023 ft 432 kts 31°
2026-05-06 18:12 47.15529 28.52078 37017 ft 432 kts 31°
2026-05-06 18:13 47.20598 28.56934 37024 ft 432 kts 31°
2026-05-06 18:13 47.25624 28.61761 37010 ft 433 kts 31°
2026-05-06 18:14 47.30676 28.66626 37012 ft 433 kts 31°
2026-05-06 18:14 47.35749 28.71520 37016 ft 433 kts 31°
2026-05-06 18:15 47.40790 28.76394 37030 ft 433 kts 31°
2026-05-06 18:15 47.45828 28.81276 37013 ft 433 kts 31°
2026-05-06 18:16 47.50900 28.86202 37014 ft 433 kts 32°
2026-05-06 18:16 47.55971 28.91141 37021 ft 433 kts 31°
2026-05-06 18:17 47.61043 28.96094 37013 ft 433 kts 31°
2026-05-06 18:17 47.66100 29.01045 37016 ft 434 kts 31°
2026-05-06 18:18 47.71124 29.05972 37005 ft 434 kts 31°
2026-05-06 18:18 47.76216 29.10980 37011 ft 434 kts 32°
2026-05-06 18:19 47.81291 29.15983 37006 ft 434 kts 32°
2026-05-06 18:19 47.86326 29.20959 37014 ft 434 kts 32°
2026-05-06 18:20 47.91515 29.25669 37015 ft 433 kts 28°
2026-05-06 18:20 47.96753 29.30044 37012 ft 433 kts 27°
2026-05-06 18:21 48.02041 29.34456 37018 ft 433 kts 27°
2026-05-06 18:21 48.07343 29.38900 37001 ft 434 kts 27°
2026-05-06 18:22 48.12649 29.43366 37012 ft 434 kts 27°
2026-05-06 18:22 48.17907 29.47800 37002 ft 435 kts 27°
2026-05-06 18:23 48.23188 29.52266 36998 ft 434 kts 28°
2026-05-06 18:23 48.28496 29.56764 37000 ft 434 kts 28°
2026-05-06 18:24 48.33763 29.61240 37001 ft 435 kts 28°
2026-05-06 18:24 48.39068 29.65758 36991 ft 436 kts 28°
2026-05-06 18:25 48.44302 29.70227 36989 ft 436 kts 28°
2026-05-06 18:25 48.49628 29.74786 36985 ft 436 kts 28°
2026-05-06 18:26 48.54895 29.79306 36992 ft 436 kts 28°
2026-05-06 18:26 48.60128 29.83808 36988 ft 436 kts 28°
2026-05-06 18:27 48.65441 29.88391 36983 ft 437 kts 29°
2026-05-06 18:27 48.70726 29.92962 36992 ft 437 kts 29°
2026-05-06 18:28 48.76040 29.97559 36990 ft 438 kts 28°
2026-05-06 18:28 48.81359 30.02167 36980 ft 439 kts 29°
2026-05-06 18:29 48.86680 30.06793 36982 ft 438 kts 29°
2026-05-06 18:29 48.91981 30.11415 36965 ft 438 kts 29°
2026-05-06 18:30 48.97292 30.16058 36974 ft 438 kts 29°
2026-05-06 18:30 49.02583 30.20694 36740 ft 440 kts 29°
2026-05-06 18:31 49.05255 30.23039 36469 ft 437 kts 29°
2026-05-06 18:31 49.07888 30.25355 36245 ft 434 kts 29°
2026-05-06 18:31 49.10478 30.27634 36028 ft 431 kts 29°
2026-05-06 18:31 49.13067 30.29917 35804 ft 429 kts 29°
2026-05-06 18:32 49.15637 30.32186 35584 ft 429 kts 29°
2026-05-06 18:32 49.18206 30.34457 35357 ft 428 kts 29°
2026-05-06 18:32 49.20788 30.36743 35129 ft 428 kts 29°
2026-05-06 18:32 49.23360 30.39021 34902 ft 428 kts 29°
2026-05-06 18:33 49.25954 30.41321 34681 ft 428 kts 29°
2026-05-06 18:33 49.28503 30.43611 34432 ft 429 kts 30°
2026-05-06 18:33 49.31094 30.46016 34173 ft 430 kts 30°
2026-05-06 18:33 49.33657 30.48419 33914 ft 431 kts 31°
2026-05-06 18:34 49.36222 30.50828 33655 ft 431 kts 31°
2026-05-06 18:34 49.38803 30.53252 33396 ft 432 kts 31°
2026-05-06 18:34 49.41363 30.55655 33138 ft 433 kts 31°
2026-05-06 18:34 49.43903 30.58040 32882 ft 433 kts 31°
2026-05-06 18:35 49.46510 30.60491 32619 ft 434 kts 31°
2026-05-06 18:35 49.49075 30.62905 32320 ft 435 kts 31°
2026-05-06 18:35 49.51666 30.65346 31836 ft 437 kts 32°
2026-05-06 18:35 49.54239 30.67914 31176 ft 438 kts 34°
2026-05-06 18:36 49.56679 30.70648 30427 ft 440 kts 38°
2026-05-06 18:36 49.58942 30.73486 29644 ft 441 kts 40°
2026-05-06 18:36 49.61284 30.76618 28818 ft 443 kts 41°
2026-05-06 18:36 49.63560 30.79712 28020 ft 443 kts 41°
2026-05-06 18:37 49.65872 30.82864 27352 ft 441 kts 41°
2026-05-06 18:37 49.68179 30.86011 26838 ft 439 kts 41°
2026-05-06 18:37 49.70454 30.89116 26307 ft 435 kts 41°
2026-05-06 18:37 49.72692 30.92170 25774 ft 431 kts 41°
2026-05-06 18:38 49.74938 30.95237 25233 ft 427 kts 41°
2026-05-06 18:38 49.77148 30.98259 24684 ft 423 kts 41°
2026-05-06 18:38 49.79350 31.01272 24136 ft 419 kts 41°
2026-05-06 18:38 49.81520 31.04245 23605 ft 415 kts 41°
2026-05-06 18:39 49.83671 31.07194 23085 ft 411 kts 41°
2026-05-06 18:39 49.85827 31.10153 22565 ft 407 kts 41°
2026-05-06 18:39 49.87931 31.13046 22061 ft 403 kts 41°
2026-05-06 18:40 49.92091 31.18775 21039 ft 396 kts 41°
2026-05-06 18:40 49.94167 31.21639 20521 ft 393 kts 41°
2026-05-06 18:40 49.96202 31.24453 20008 ft 390 kts 41°
2026-05-06 18:40 49.98229 31.27257 19496 ft 387 kts 41°
2026-05-06 18:41 50.00216 31.30010 18993 ft 384 kts 41°
2026-05-06 18:41 50.02278 31.32693 18465 ft 381 kts 33°
2026-05-06 18:41 50.04683 31.34321 17943 ft 377 kts 12°
2026-05-06 18:41 50.07298 31.34706 17440 ft 373 kts
2026-05-06 18:42 50.09902 31.34763 16916 ft 372 kts
2026-05-06 18:42 50.12476 31.34808 16387 ft 372 kts
2026-05-06 18:42 50.15064 31.34861 15853 ft 371 kts
2026-05-06 18:42 50.17532 31.34921 15341 ft 370 kts
2026-05-06 18:43 50.20106 31.34991 14809 ft 370 kts
2026-05-06 18:43 50.22666 31.35066 14275 ft 369 kts
2026-05-06 18:43 50.25190 31.35143 13739 ft 369 kts
2026-05-06 18:43 50.27746 31.35224 13213 ft 367 kts
2026-05-06 18:44 50.30298 31.35303 12703 ft 365 kts
2026-05-06 18:44 50.32827 31.35382 12197 ft 363 kts
2026-05-06 18:44 50.35323 31.35461 11698 ft 360 kts
2026-05-06 18:44 50.37839 31.35540 11189 ft 357 kts
2026-05-06 18:45 50.40307 31.35616 10794 ft 350 kts
2026-05-06 18:45 50.42713 31.35691 10574 ft 338 kts
2026-05-06 18:45 50.45025 31.35763 10413 ft 324 kts
2026-05-06 18:45 50.47266 31.35832 10252 ft 312 kts
2026-05-06 18:46 50.49400 31.35897 10101 ft 300 kts
2026-05-06 18:46 50.51467 31.35962 9959 ft 289 kts
2026-05-06 18:46 50.53465 31.36024 9680 ft 285 kts
2026-05-06 18:46 50.55442 31.36086 9315 ft 284 kts
2026-05-06 18:47 50.57403 31.36142 8962 ft 282 kts 359°
2026-05-06 18:47 50.59329 31.35561 8560 ft 281 kts 332°
2026-05-06 18:47 50.60790 31.33583 8200 ft 277 kts 303°
2026-05-06 18:47 50.61494 31.30745 7837 ft 273 kts 276°
2026-05-06 18:48 50.61592 31.27779 7516 ft 271 kts 271°
2026-05-06 18:48 50.61658 31.24794 7038 ft 271 kts 272°
2026-05-06 18:48 50.61737 31.21818 6376 ft 271 kts 272°
2026-05-06 18:48 50.61828 31.18875 5744 ft 268 kts 272°
2026-05-06 18:49 50.61924 31.15952 5101 ft 265 kts 272°
2026-05-06 18:49 50.62019 31.13098 4657 ft 254 kts 272°
2026-05-06 18:49 50.62110 31.10381 4220 ft 245 kts 271°
2026-05-06 18:49 50.62197 31.07727 3776 ft 238 kts 271°
2026-05-06 18:50 50.62283 31.05133 3293 ft 233 kts 271°
2026-05-06 18:50 50.62366 31.02595 3025 ft 225 kts 271°
2026-05-06 18:50 50.62294 31.00165 3010 ft 221 kts 254°
2026-05-06 18:50 50.61665 30.97941 3014 ft 220 kts 233°
2026-05-06 18:51 50.60683 30.96038 3027 ft 219 kts 229°
2026-05-06 18:51 50.59719 30.94270 3004 ft 206 kts 229°
2026-05-06 18:51 50.58710 30.92679 2999 ft 206 kts 211°
2026-05-06 18:51 50.57340 30.92034 3014 ft 204 kts 187°
2026-05-06 18:52 50.55962 30.91960 3082 ft 183 kts 182°
2026-05-06 18:52 50.54736 30.91962 3024 ft 167 kts 182°
2026-05-06 18:52 50.53644 30.91944 3020 ft 152 kts 184°
2026-05-06 18:52 50.52571 30.91896 3012 ft 150 kts 184°
2026-05-06 18:53 50.51521 30.91830 3014 ft 150 kts 185°
2026-05-06 18:53 50.50465 30.91753 3013 ft 150 kts 185°
2026-05-06 18:53 50.49408 30.91670 2963 ft 151 kts 185°
2026-05-06 18:53 50.48346 30.91586 2766 ft 150 kts 185°
2026-05-06 18:54 50.47310 30.91503 2574 ft 149 kts 186°
2026-05-06 18:54 50.46260 30.91420 2378 ft 148 kts 186°
2026-05-06 18:54 50.45229 30.91340 2187 ft 148 kts 186°
2026-05-06 18:54 50.44192 30.91260 1992 ft 148 kts 186°
2026-05-06 18:55 50.43154 30.91181 1797 ft 147 kts 186°
2026-05-06 18:55 50.42129 30.91103 1600 ft 147 kts 185°
2026-05-06 18:55 50.41109 30.91026 1403 ft 146 kts 185°
2026-05-06 18:55 50.40081 30.90949 1207 ft 146 kts 184°
2026-05-06 18:56 50.39073 30.90873 1015 ft 145 kts 184°
2026-05-06 18:56 50.38071 30.90798 797 ft 142 kts 183°
2026-05-06 18:56 50.37094 30.90726 617 ft 141 kts 183°
2026-05-06 18:56 50.36117 30.90652 469 ft 142 kts 183°
2026-05-06 18:57 50.35183 30.90586 404 ft 110 kts 182°
2026-05-06 18:57 50.34697 30.90548 406 ft 49 kts 182°
2026-05-06 18:57 50.34385 30.90519 407 ft 35 kts 184°
2026-05-06 18:57 50.34166 30.90420 408 ft 31 kts 209°
2026-05-06 18:58 50.33987 30.90240 410 ft 29 kts 213°
2026-05-06 18:58 50.33802 30.90157 411 ft 27 kts 184°
2026-05-06 18:58 50.33646 30.90145 411 ft 14 kts 181°
2026-05-06 18:58 50.33544 30.90135 412 ft 14 kts 195°
2026-05-06 18:59 50.33498 30.90007 412 ft 14 kts 268°
2026-05-06 18:59 50.33503 30.89883 413 ft 5 kts 291°
2026-05-06 18:59 50.33537 30.89864 413 ft 6 kts
2026-05-06 18:59 50.33563 30.89867 413 ft 0 kts